Flag for U.S.A. Weather past 2 weeks in Mesquite, Texas, U.S.A.

Now
39 °F

Sunny.


Feels Like: 39 °F
Forecast: 22 / 45 °F
Wind: No wind

Location: Mesquite Metro Airport

Current Time: Mar 6, 2015 at 10:40:42 AM

Latest Report: Mar 6, 2015 at 9:50 AM


Visibility: 10 mi

Pressure: 30.62 "Hg

Humidity: 56%

Dew point: 25 °F

Location of MesquiteLocation

Historic Weather in Mesquite — Graph

°F

Mesquite temperature yesterday

Maximum temperature yesterday: 37 °F (at 4:50 PM)
Minimum temperature yesterday: 26 °F (at 4:35 AM)
Average temperature yesterday: 30 °F

Past Weeks' High & Low Weather Summary

 TemperatureHumidityPressure
High70 °F (Feb 20, 3:50 PM)100% (Feb 21, 7:00 AM)30.63 "Hg (Feb 21, 7:00 AM)
Low25 °F (Mar 6, 6:50 AM)38% (Feb 19, 2:50 PM)29.71 "Hg (Feb 21, 3:55 AM)
Average37 °F85%30.22 "Hg
* Reported Feb 19 8:50 AM — Mar 6 8:50 AM, Mesquite, Weather by CustomWeather, © 2015

Note: Actual official high and low records may vary slightly from our data, if they occured in-between our weather recording intervals... More about our weather records

Advertising

Mesquite weather history for previous 24 hours

 ConditionsComfort  
Time TempWeatherWind HumidityBarometerVisibility
8:50 AM
Fri, Mar 6
32 °FSunny.No wind87%30.61 "Hg7 mi
7:50 AM27 °FSunny.No wind100%30.60 "Hg7 mi
6:50 AM25 °FSunny.No wind93%30.60 "Hg7 mi
4:35 AM26 °FClear.No wind94%30.58 "Hg10 mi
4:15 AM26 °FClear.No wind93%30.58 "Hg10 mi
3:55 AM26 °FClear.No wind92%30.57 "Hg10 mi
3:35 AM27 °FClear.No wind92%30.58 "Hg10 mi
3:15 AM27 °FClear.No wind85%30.58 "Hg10 mi
2:55 AM29 °FClear.5 mph81%30.59 "Hg10 mi
2:35 AM28 °FClear.No wind84%30.59 "Hg10 mi
2:15 AM28 °FClear.3 mph86%30.59 "Hg10 mi
1:55 AM28 °FClear.No wind84%30.59 "Hg10 mi
1:35 AM29 °FClear.5 mph82%30.60 "Hg10 mi
1:15 AM29 °FClear.5 mph83%30.61 "Hg10 mi
12:55 AM27 °FClear.No wind87%30.61 "Hg10 mi
12:35 AM28 °FClear.No wind85%30.60 "Hg10 mi
12:15 AM28 °FClear.No wind85%30.61 "Hg10 mi
11:55 PM
Thu, Mar 5
29 °FClear.No wind85%30.60 "Hg10 mi
11:35 PM29 °FClear.No wind86%30.60 "Hg10 mi
11:15 PM29 °FClear.No wind88%30.60 "Hg10 mi
10:55 PM30 °FClear.No wind85%30.61 "Hg10 mi
10:35 PM30 °FClear.No wind80%30.62 "Hg10 mi
10:15 PM29 °FClear.No wind86%30.62 "Hg10 mi
9:55 PM31 °FClear.No wind86%30.62 "Hg10 mi
9:35 PM31 °FClear.No wind87%30.61 "Hg10 mi
8:55 PM32 °FClear.No wind79%30.61 "Hg10 mi
7:50 PM34 °FClear.No wind75%30.60 "Hg10 mi
6:50 PM34 °FClear.No wind65%30.58 "Hg10 mi
5:50 PM36 °FSunny.7 mph56%30.57 "Hg10 mi
4:50 PM37 °FSunny.9 mph52%30.57 "Hg10 mi
4:04 PM36 °FSunny.12 mph56%30.57 "Hg10 mi
1:55 PM36 °FSunny.9 mph52%30.59 "Hg10 mi
12:50 PM34 °FSunny.9 mph56%30.61 "Hg10 mi
11:50 AM32 °FSunny.8 mph55%30.63 "Hg10 mi
10:50 AM30 °FSunny.14 mph59%30.63 "Hg10 mi
Weather by CustomWeather, © 2015

See weather overviewHow to use our weather pages